Paganella, Italy

12:27 AM CEST on September 01, 2016 (GMT +0200)
Paganella

Weather History for LIVP - March, 2013

Change the Weather History Date:

Friday, March 22, 2013

  Actual Average Record
Temperature  
Mean Temperature 24 °F -  
Max Temperature 30 °F 34 °F 42 °F (2005)
Min Temperature 19 °F 25 °F 10 °F (1998)
Degree Days  
Heating Degree Days 40    
Moisture  
Dew Point 9 °F    
Average Humidity 48    
Maximum Humidity 74    
Minimum Humidity 25    
Precipitation  
Precipitation 0.00 in 0.05 in - ()
Sea Level Pressure  
Sea Level Pressure 29.76 in    
Wind  
Wind Speed 5 mph ()    
Max Wind Speed 9 mph    
Max Gust Speed -    
Visibility 19.0 miles    
Events      
Averages and records for this station are not official NWS values.
T = Trace of Precipitation, MM = Missing Value Source: Averaged Metar Reports

Daily Weather History Graph

Daily Weather History Graph

Search for Another Location

Airport or City:

Trip Planner

Search our weather history database for the weather conditions in past years. The results will help you decide how hot, cold, wet, or windy it might be!

Date:

Astronomy

Mar. 22, 2013 Rise Set
Actual Time 6:15 AM CET 6:31 PM CET
Civil Twilight 5:45 AM CET 7:01 PM CET
Nautical Twilight 5:09 AM CET 7:36 PM CET
Astronomical Twilight 4:33 AM CET 8:12 PM CET
Moon 1:28 PM CET (3/22) 3:19 AM CET (3/22)
Length of Visible Light 13h 15m
Length of Day
12h 16m
Waxing Gibbous, 75% of the Moon is Illuminated
Mar 22
Waxing Gibbous
Mar 27
Full
Apr 3
Last Quarter
Apr 10
New
Apr 18
First Quarter

Hourly Weather History & Observations

Time (CET) Temp. Windchill Dew Point Humidity Pressure Visibility Wind Dir Wind Speed Gust Speed Precip Events Conditions
12:55 AM 19.4 °F 14.3 °F 3.2 °F 49% 29.77 in - North 3.5 mph - N/A   Clear
1:00 AM 20 °F - 3 °F 32%  in 37 mi North 3.5 mph - -  
1:55 AM 19.4 °F - 1.4 °F 46% 29.77 in - South 2.3 mph - N/A   Clear
2:55 AM 19.4 °F 14.3 °F 1.4 °F 46% 29.77 in - SSW 3.5 mph - N/A   Clear
3:55 AM 21.2 °F 11.7 °F 1.4 °F 42% 29.77 in - SSW 8.1 mph - N/A   Clear
4:00 AM 21 °F - 1 °F 27%  in 37 mi SSW 8.1 mph - -   Scattered Clouds
4:55 AM 21.2 °F 10.9 °F 1.4 °F 42% 29.77 in - SSW 9.2 mph - N/A   Clear
5:55 AM 21.2 °F 16.4 °F 1.4 °F 42% 29.74 in - North 3.5 mph - N/A   Clear
6:55 AM 23.0 °F 14.7 °F 1.4 °F 39% 29.74 in - NNE 6.9 mph - N/A   Clear
7:00 AM 23 °F - 2 °F 25%  in 37 mi NNE 6.9 mph - -  
7:55 AM 23.0 °F 13.1 °F 5.0 °F 46% 29.74 in - NE 9.2 mph - N/A   Clear
8:55 AM 23.0 °F - 6.8 °F 50% 29.74 in - Variable 1.2 mph - N/A   Clear
9:55 AM 26.6 °F - 8.6 °F 47% 29.77 in - Calm Calm - N/A   Clear
10:00 AM 26 °F - 9 °F 34%  in 37 mi Calm Calm - -  
10:55 AM 26.6 °F 21.2 °F 10.4 °F 51% 29.77 in - WSW 4.6 mph - N/A   Clear
11:55 AM 28.4 °F 23.3 °F 12.2 °F 51% 29.77 in - SSW 4.6 mph - N/A   Clear
12:55 PM 28.4 °F 24.6 °F 12.2 °F 51% 29.77 in - Variable 3.5 mph - N/A   Clear
1:00 PM 29 °F - 13 °F 37%  in 37 mi 3.5 mph - -  
1:55 PM 28.4 °F 21.2 °F 12.2 °F 51% 29.77 in - SSW 6.9 mph - N/A   Clear
2:55 PM 28.4 °F 20.4 °F 14.0 °F 55% 29.74 in - WSW 8.1 mph - N/A   Clear
3:55 PM 30.2 °F 26.7 °F 14.0 °F 51% 29.74 in - SSW 3.5 mph - N/A   Clear
4:00 PM 30 °F - 15 °F 39%  in 37 mi SSW 3.5 mph - -   Clear
4:55 PM 28.4 °F 20.4 °F 14.0 °F 55% 29.74 in - WSW 8.1 mph - N/A   Clear
5:55 PM 30.2 °F 26.7 °F 12.2 °F 47% 29.74 in - SSW 3.5 mph - N/A   Clear
6:55 PM 28.4 °F 19.7 °F 14.0 °F 55% 29.77 in - SW 9.2 mph - N/A   Clear
7:00 PM 28 °F - 13 °F 41%  in 28 mi SW 9.2 mph - -   Clear
7:55 PM 28.4 °F 22.2 °F 14.0 °F 55% 29.77 in - South 5.8 mph - N/A   Clear
8:55 PM 26.6 °F 20.0 °F 15.8 °F 64% 29.77 in - SSW 5.8 mph - N/A   Clear
9:55 PM 26.6 °F 19.1 °F 15.8 °F 64% 29.77 in - South 6.9 mph - N/A   Clear
10:00 PM 27 °F - 16 °F 52%  in 19 mi South 6.9 mph - -   Clear
10:55 PM 24.8 °F 17.9 °F 15.8 °F 69% 29.77 in - SSW 5.8 mph - N/A   Clear
11:55 PM 24.8 °F 16.1 °F 17.6 °F 74% 29.77 in - South 8.1 mph - N/A   Clear